JBU381 KBOS-KRIC

Flight info

Callsign JBU381
Flight time 1h 23m
Altitude 36000
Route SSOXS7 SSOXS Q167 ZJAAY ARICE JAMIE
Aircraft A21N/M-SDE2E3FGHIRWXY/LB1

Departure

Time 2026-05-06 17:20
Airport Boston Logan International Airport (KBOS)

Arrival

Time 2026-05-06 18:43
Airport Richmond International Airport (KRIC)
Time Latitude Longitude Altitude Speed Heading
2026-05-06 16:58 42.36013 -71.01871 28 ft 0 kts 29°
2026-05-06 17:08 42.36000 -71.01882 53 ft 2 kts 33°
2026-05-06 17:08 42.35986 -71.01895 28 ft 2 kts 40°
2026-05-06 17:08 42.35975 -71.01910 28 ft 2 kts 56°
2026-05-06 17:09 42.35970 -71.01931 28 ft 2 kts 100°
2026-05-06 17:09 42.35974 -71.01945 28 ft 1 kts 120°
2026-05-06 17:09 42.35974 -71.01946 28 ft 0 kts 120°
2026-05-06 17:14 42.35969 -71.01934 28 ft 6 kts 120°
2026-05-06 17:14 42.35933 -71.01845 28 ft 16 kts 115°
2026-05-06 17:14 42.35899 -71.01688 28 ft 19 kts 101°
2026-05-06 17:15 42.35920 -71.01536 28 ft 17 kts 30°
2026-05-06 17:15 42.36031 -71.01480 28 ft 17 kts 19°
2026-05-06 17:15 42.36145 -71.01426 28 ft 18 kts 19°
2026-05-06 17:15 42.36263 -71.01369 28 ft 18 kts 19°
2026-05-06 17:16 42.36385 -71.01310 29 ft 19 kts 19°
2026-05-06 17:16 42.36508 -71.01251 29 ft 19 kts 19°
2026-05-06 17:16 42.36634 -71.01190 29 ft 19 kts 20°
2026-05-06 17:16 42.36765 -71.01148 29 ft 19 kts 347°
2026-05-06 17:17 42.36863 -71.01227 29 ft 12 kts
2026-05-06 17:17 42.36948 -71.01153 29 ft 18 kts 40°
2026-05-06 17:17 42.37078 -71.01052 28 ft 25 kts 25°
2026-05-06 17:17 42.37255 -71.00938 28 ft 26 kts 25°
2026-05-06 17:18 42.37431 -71.00844 29 ft 29 kts 19°
2026-05-06 17:18 42.37621 -71.00752 29 ft 29 kts 20°
2026-05-06 17:18 42.37802 -71.00663 28 ft 23 kts 26°
2026-05-06 17:18 42.37823 -71.00525 28 ft 15 kts 112°
2026-05-06 17:19 42.37745 -71.00494 28 ft 12 kts 199°
2026-05-06 17:19 42.37514 -71.00612 30 ft 65 kts 197°
2026-05-06 17:19 42.36885 -71.00910 29 ft 129 kts 199°
2026-05-06 17:19 42.35934 -71.01420 231 ft 157 kts 200°
2026-05-06 17:20 42.34834 -71.01730 663 ft 164 kts 177°
2026-05-06 17:20 42.33817 -71.01229 1531 ft 155 kts 150°
2026-05-06 17:20 42.32982 -71.00142 2027 ft 183 kts 140°
2026-05-06 17:20 42.32122 -70.98700 2420 ft 207 kts 139°
2026-05-06 17:21 42.31356 -70.96951 2964 ft 234 kts 121°
2026-05-06 17:21 42.31179 -70.94550 3331 ft 282 kts 91°
2026-05-06 17:21 42.31529 -70.91832 3877 ft 302 kts 84°
2026-05-06 17:21 42.31973 -70.89113 4768 ft 306 kts 84°
2026-05-06 17:22 42.32417 -70.86333 5730 ft 305 kts 85°
2026-05-06 17:22 42.32847 -70.83503 6664 ft 309 kts 86°
2026-05-06 17:22 42.33096 -70.80632 7512 ft 305 kts 103°
2026-05-06 17:22 42.32614 -70.77928 8403 ft 292 kts 123°
2026-05-06 17:23 42.31817 -70.75460 9332 ft 293 kts 127°
2026-05-06 17:23 42.30941 -70.72955 10166 ft 299 kts 127°
2026-05-06 17:23 42.29952 -70.70387 10555 ft 314 kts 134°
2026-05-06 17:23 42.28451 -70.68257 10839 ft 315 kts 156°
2026-05-06 17:24 42.26455 -70.66983 11180 ft 324 kts 168°
2026-05-06 17:24 42.24315 -70.66000 11767 ft 334 kts 169°
2026-05-06 17:24 42.22079 -70.65009 12484 ft 342 kts 169°
2026-05-06 17:24 42.19794 -70.63987 13212 ft 349 kts 169°
2026-05-06 17:25 42.17487 -70.62948 13895 ft 355 kts 169°
2026-05-06 17:25 42.15096 -70.62156 14512 ft 352 kts 179°
2026-05-06 17:25 42.12669 -70.62123 15138 ft 347 kts 192°
2026-05-06 17:25 42.10321 -70.62857 15758 ft 347 kts 201°
2026-05-06 17:26 42.08009 -70.63861 16380 ft 351 kts 202°
2026-05-06 17:26 42.05708 -70.64901 16975 ft 356 kts 202°
2026-05-06 17:26 42.03340 -70.65966 17565 ft 361 kts 202°
2026-05-06 17:26 42.00942 -70.67034 18131 ft 366 kts 202°
2026-05-06 17:27 41.98510 -70.68111 18654 ft 370 kts 202°
2026-05-06 17:27 41.96049 -70.69196 19114 ft 374 kts 202°
2026-05-06 17:27 41.93564 -70.70289 19571 ft 378 kts 202°
2026-05-06 17:27 41.91050 -70.71393 20085 ft 381 kts 202°
2026-05-06 17:28 41.88524 -70.72500 20580 ft 384 kts 202°
2026-05-06 17:28 41.86004 -70.73604 21073 ft 387 kts 202°
2026-05-06 17:28 41.83503 -70.74877 21543 ft 388 kts 208°
2026-05-06 17:28 41.81068 -70.76466 21998 ft 390 kts 211°
2026-05-06 17:29 41.78674 -70.78201 22435 ft 393 kts 212°
2026-05-06 17:29 41.76285 -70.80018 22837 ft 397 kts 213°
2026-05-06 17:29 41.73888 -70.81872 23284 ft 400 kts 213°
2026-05-06 17:29 41.71470 -70.83737 23686 ft 403 kts 213°
2026-05-06 17:30 41.69029 -70.85604 24042 ft 405 kts 213°
2026-05-06 17:30 41.66571 -70.87467 24422 ft 407 kts 213°
2026-05-06 17:30 41.64128 -70.89302 24831 ft 409 kts 213°
2026-05-06 17:30 41.61642 -70.91157 25216 ft 410 kts 213°
2026-05-06 17:31 41.59142 -70.93027 25552 ft 413 kts 214°
2026-05-06 17:31 41.56734 -70.95119 25898 ft 412 kts 220°
2026-05-06 17:31 41.54552 -70.97589 26250 ft 411 kts 227°
2026-05-06 17:31 41.52667 -71.00443 26598 ft 411 kts 234°
2026-05-06 17:32 41.50969 -71.03519 26950 ft 412 kts 237°
2026-05-06 17:32 41.49350 -71.06670 27287 ft 413 kts 238°
2026-05-06 17:32 41.47785 -71.09825 27640 ft 413 kts 238°
2026-05-06 17:32 41.46216 -71.13026 28101 ft 411 kts 238°
2026-05-06 17:33 41.44649 -71.16212 28535 ft 410 kts 238°
2026-05-06 17:33 41.43086 -71.19370 28992 ft 408 kts 238°
2026-05-06 17:33 41.41521 -71.22508 29444 ft 406 kts 238°
2026-05-06 17:33 41.39956 -71.25630 29894 ft 405 kts 238°
2026-05-06 17:34 41.38389 -71.28742 30297 ft 403 kts 238°
2026-05-06 17:34 41.36826 -71.31840 30651 ft 402 kts 238°
2026-05-06 17:34 41.35266 -71.34929 30990 ft 402 kts 238°
2026-05-06 17:34 41.33729 -71.37971 31322 ft 401 kts 239°
2026-05-06 17:35 41.32171 -71.41052 31659 ft 401 kts 239°
2026-05-06 17:35 41.30620 -71.44118 31979 ft 400 kts 239°
2026-05-06 17:35 41.29066 -71.47187 32311 ft 399 kts 239°
2026-05-06 17:36 41.25971 -71.53291 32936 ft 398 kts 239°
2026-05-06 17:36 41.24425 -71.56335 33244 ft 397 kts 239°
2026-05-06 17:36 41.22882 -71.59368 33561 ft 396 kts 239°
2026-05-06 17:36 41.21364 -71.62353 33868 ft 395 kts 240°
2026-05-06 17:37 41.19827 -71.65369 34140 ft 393 kts 240°
2026-05-06 17:37 41.18298 -71.68368 34405 ft 392 kts 240°
2026-05-06 17:37 41.16777 -71.71348 34664 ft 390 kts 240°
2026-05-06 17:37 41.15259 -71.74320 34926 ft 388 kts 241°
2026-05-06 17:38 41.13749 -71.77278 35187 ft 386 kts 242°
2026-05-06 17:38 41.12255 -71.80211 35487 ft 382 kts 242°
2026-05-06 17:38 41.10769 -71.83131 35727 ft 381 kts 243°
2026-05-06 17:38 41.09290 -71.86041 35907 ft 381 kts 243°
2026-05-06 17:39 41.06341 -71.91843 35968 ft 382 kts 243°
2026-05-06 17:39 41.03499 -71.97688 35953 ft 372 kts 249°
2026-05-06 17:40 41.01213 -72.03795 35947 ft 370 kts 250°
2026-05-06 17:40 40.99036 -72.09958 35927 ft 369 kts 251°
2026-05-06 17:41 40.96878 -72.16121 35941 ft 369 kts 251°
2026-05-06 17:41 40.94724 -72.22237 35934 ft 369 kts 251°
2026-05-06 17:42 40.92496 -72.28359 35934 ft 370 kts 247°
2026-05-06 17:42 40.89433 -72.33895 35939 ft 379 kts 236°
2026-05-06 17:43 40.85752 -72.38916 35930 ft 382 kts 234°
2026-05-06 17:43 40.81978 -72.43788 35934 ft 383 kts 233°
2026-05-06 17:44 40.77961 -72.48492 35937 ft 388 kts 230°
2026-05-06 17:44 40.73796 -72.53036 35941 ft 389 kts 229°
2026-05-06 17:45 40.69612 -72.57551 35933 ft 389 kts 230°
2026-05-06 17:45 40.65536 -72.62121 35914 ft 386 kts 231°
2026-05-06 17:46 40.61505 -72.66773 35933 ft 385 kts 231°
2026-05-06 17:46 40.57486 -72.71421 35928 ft 385 kts 231°
2026-05-06 17:47 40.53488 -72.76018 35926 ft 385 kts 231°
2026-05-06 17:47 40.49476 -72.80611 35927 ft 385 kts 231°
2026-05-06 17:48 40.45434 -72.85228 35917 ft 385 kts 231°
2026-05-06 17:48 40.41414 -72.89813 35917 ft 385 kts 231°
2026-05-06 17:49 40.37368 -72.94421 35919 ft 385 kts 231°
2026-05-06 17:49 40.33356 -72.98979 35911 ft 383 kts 231°
2026-05-06 17:50 40.29339 -73.03536 35883 ft 382 kts 232°
2026-05-06 17:50 40.25313 -73.08102 35914 ft 383 kts 232°
2026-05-06 17:51 40.21273 -73.12676 35911 ft 384 kts 232°
2026-05-06 17:51 40.17266 -73.17202 35910 ft 384 kts 232°
2026-05-06 17:52 40.13221 -73.21764 35914 ft 384 kts 232°
2026-05-06 17:52 40.09201 -73.26287 35908 ft 385 kts 232°
2026-05-06 17:53 40.05166 -73.30818 35912 ft 387 kts 232°
2026-05-06 17:53 40.01097 -73.35372 35915 ft 384 kts 232°
2026-05-06 17:54 39.97100 -73.39837 35908 ft 384 kts 232°
2026-05-06 17:54 39.93034 -73.44377 35882 ft 383 kts 232°
2026-05-06 17:55 39.88969 -73.48910 35917 ft 385 kts 232°
2026-05-06 17:55 39.84920 -73.53418 35911 ft 386 kts 232°
2026-05-06 17:56 39.80843 -73.57956 35911 ft 386 kts 232°
2026-05-06 17:56 39.76766 -73.62491 35911 ft 386 kts 232°
2026-05-06 17:57 39.72688 -73.67021 35906 ft 385 kts 232°
2026-05-06 17:57 39.68637 -73.71509 35911 ft 382 kts 232°
2026-05-06 17:58 39.64629 -73.75948 35909 ft 381 kts 232°
2026-05-06 17:58 39.60593 -73.80413 35905 ft 381 kts 232°
2026-05-06 17:59 39.56557 -73.84869 35911 ft 381 kts 232°
2026-05-06 17:59 39.52515 -73.89324 35910 ft 381 kts 232°
2026-05-06 18:00 39.48475 -73.93770 35913 ft 381 kts 232°
2026-05-06 18:00 39.44458 -73.98183 35920 ft 381 kts 232°
2026-05-06 18:01 39.40416 -74.02615 35915 ft 380 kts 232°
2026-05-06 18:01 39.36393 -74.07009 35906 ft 378 kts 232°
2026-05-06 18:02 39.32371 -74.11402 35918 ft 378 kts 232°
2026-05-06 18:02 39.28376 -74.15760 35928 ft 379 kts 232°
2026-05-06 18:03 39.24349 -74.20145 35927 ft 379 kts 232°
2026-05-06 18:03 39.20330 -74.24513 35927 ft 379 kts 232°
2026-05-06 18:04 39.16289 -74.28898 35924 ft 379 kts 232°
2026-05-06 18:04 39.12267 -74.33259 35929 ft 381 kts 232°
2026-05-06 18:05 39.08212 -74.37647 35925 ft 380 kts 232°
2026-05-06 18:05 39.04177 -74.42000 35935 ft 378 kts 232°
2026-05-06 18:06 39.00155 -74.46336 35931 ft 377 kts 232°
2026-05-06 18:06 38.96157 -74.50645 35934 ft 379 kts 232°
2026-05-06 18:07 38.92173 -74.55052 35932 ft 377 kts 233°
2026-05-06 18:07 38.88302 -74.59584 35933 ft 376 kts 234°
2026-05-06 18:08 38.84453 -74.64133 35930 ft 376 kts 234°
2026-05-06 18:08 38.80615 -74.68642 35929 ft 376 kts 234°
2026-05-06 18:09 38.76741 -74.73168 35934 ft 380 kts 234°
2026-05-06 18:09 38.72707 -74.77687 35936 ft 389 kts 231°
2026-05-06 18:10 38.68500 -74.82057 35936 ft 390 kts 230°
2026-05-06 18:10 38.64298 -74.86368 35923 ft 390 kts 230°
2026-05-06 18:11 38.62186 -74.88546 35677 ft 390 kts 230°
2026-05-06 18:11 38.60073 -74.90734 35424 ft 391 kts 230°
2026-05-06 18:11 38.57951 -74.92935 35182 ft 393 kts 231°
2026-05-06 18:11 38.55827 -74.95141 34941 ft 394 kts 230°
2026-05-06 18:12 38.53698 -74.97351 34703 ft 395 kts 231°
2026-05-06 18:12 38.51619 -74.99570 34472 ft 394 kts 231°
2026-05-06 18:12 38.49541 -75.01860 34239 ft 395 kts 232°
2026-05-06 18:12 38.47475 -75.04171 34008 ft 396 kts 231°
2026-05-06 18:13 38.45345 -75.06432 33741 ft 400 kts 229°
2026-05-06 18:13 38.43144 -75.08611 33469 ft 402 kts 227°
2026-05-06 18:13 38.40898 -75.10747 33210 ft 403 kts 226°
2026-05-06 18:13 38.38634 -75.12868 32918 ft 405 kts 226°
2026-05-06 18:14 38.36355 -75.14998 32659 ft 408 kts 225°
2026-05-06 18:14 38.34064 -75.17146 32403 ft 410 kts 225°
2026-05-06 18:14 38.31767 -75.19305 32144 ft 411 kts 225°
2026-05-06 18:14 38.29519 -75.21426 31908 ft 412 kts 225°
2026-05-06 18:15 38.27209 -75.23608 31663 ft 414 kts 225°
2026-05-06 18:15 38.24896 -75.25795 31412 ft 415 kts 225°
2026-05-06 18:15 38.22574 -75.27992 31167 ft 417 kts 224°
2026-05-06 18:15 38.20242 -75.30195 30925 ft 418 kts 224°
2026-05-06 18:16 38.17901 -75.32406 30670 ft 421 kts 224°
2026-05-06 18:16 38.15539 -75.34638 30423 ft 425 kts 224°
2026-05-06 18:16 38.13159 -75.36882 30186 ft 427 kts 223°
2026-05-06 18:16 38.10802 -75.39101 29961 ft 429 kts 223°
2026-05-06 18:17 38.08402 -75.41356 29671 ft 430 kts 223°
2026-05-06 18:17 38.05998 -75.43609 29395 ft 430 kts 223°
2026-05-06 18:17 38.03550 -75.45792 29124 ft 430 kts 221°
2026-05-06 18:17 38.01056 -75.47895 28859 ft 431 kts 220°
2026-05-06 18:18 37.98535 -75.49962 28557 ft 432 kts 220°
2026-05-06 18:18 37.96008 -75.52013 28305 ft 431 kts 220°
2026-05-06 18:18 37.93482 -75.54065 28044 ft 432 kts 220°
2026-05-06 18:18 37.90960 -75.56120 27786 ft 432 kts 220°
2026-05-06 18:19 37.88427 -75.58193 27525 ft 433 kts 220°
2026-05-06 18:19 37.85930 -75.60242 27274 ft 434 kts 220°
2026-05-06 18:19 37.83396 -75.62325 27021 ft 435 kts 220°
2026-05-06 18:19 37.80857 -75.64412 26763 ft 436 kts 220°
2026-05-06 18:20 37.78313 -75.66502 26516 ft 437 kts 220°
2026-05-06 18:20 37.75767 -75.68589 26091 ft 433 kts 220°
2026-05-06 18:20 37.73248 -75.70649 25373 ft 430 kts 220°
2026-05-06 18:20 37.70860 -75.72824 24814 ft 415 kts 227°
2026-05-06 18:21 37.68894 -75.75395 24255 ft 400 kts 238°
2026-05-06 18:21 37.67424 -75.78247 23715 ft 389 kts 245°
2026-05-06 18:21 37.66151 -75.81225 23107 ft 382 kts 248°
2026-05-06 18:21 37.64998 -75.84203 22561 ft 374 kts 249°
2026-05-06 18:22 37.63913 -75.87148 22028 ft 367 kts 249°
2026-05-06 18:22 37.62854 -75.90072 21501 ft 367 kts 249°
2026-05-06 18:22 37.61823 -75.93013 20950 ft 365 kts 252°
2026-05-06 18:22 37.61119 -75.96055 20414 ft 360 kts 261°
2026-05-06 18:23 37.60896 -75.99170 19895 ft 356 kts 271°
2026-05-06 18:23 37.60998 -76.02243 19374 ft 355 kts 274°
2026-05-06 18:23 37.61182 -76.05338 18847 ft 354 kts 274°
2026-05-06 18:23 37.61384 -76.08424 18317 ft 352 kts 274°
2026-05-06 18:24 37.61588 -76.11502 17743 ft 356 kts 274°
2026-05-06 18:24 37.61797 -76.14667 16996 ft 367 kts 274°
2026-05-06 18:24 37.62009 -76.17888 16185 ft 368 kts 274°
2026-05-06 18:24 37.62220 -76.21089 15444 ft 365 kts 273°
2026-05-06 18:25 37.62423 -76.24182 15191 ft 354 kts 273°
2026-05-06 18:25 37.62624 -76.27274 14681 ft 354 kts 273°
2026-05-06 18:25 37.62824 -76.30369 13928 ft 354 kts 273°
2026-05-06 18:25 37.63024 -76.33461 13089 ft 352 kts 273°
2026-05-06 18:26 37.63220 -76.36509 12255 ft 342 kts 273°
2026-05-06 18:26 37.63406 -76.39385 11477 ft 325 kts 272°
2026-05-06 18:26 37.63586 -76.42175 10686 ft 311 kts 272°
2026-05-06 18:26 37.63756 -76.44840 9914 ft 299 kts 272°
2026-05-06 18:27 37.63918 -76.47391 9301 ft 283 kts 272°
2026-05-06 18:27 37.64069 -76.49758 9034 ft 259 kts 271°
2026-05-06 18:27 37.64206 -76.51939 8712 ft 248 kts 271°
2026-05-06 18:27 37.64339 -76.54093 8227 ft 246 kts 271°
2026-05-06 18:28 37.64471 -76.56235 7741 ft 244 kts 271°
2026-05-06 18:28 37.64602 -76.58372 7256 ft 243 kts 271°
2026-05-06 18:28 37.64732 -76.60492 6793 ft 242 kts 271°
2026-05-06 18:28 37.64871 -76.62611 6325 ft 242 kts 271°
2026-05-06 18:29 37.65005 -76.64730 5825 ft 242 kts 271°
2026-05-06 18:29 37.65136 -76.66849 5327 ft 242 kts 271°
2026-05-06 18:29 37.65260 -76.68937 4851 ft 242 kts 271°
2026-05-06 18:29 37.65386 -76.71048 4406 ft 241 kts 270°
2026-05-06 18:30 37.65513 -76.73105 4253 ft 229 kts 270°
2026-05-06 18:30 37.65633 -76.75052 4135 ft 216 kts 270°
2026-05-06 18:30 37.65748 -76.76898 4011 ft 209 kts 269°
2026-05-06 18:30 37.65858 -76.78729 3885 ft 209 kts 269°
2026-05-06 18:31 37.65964 -76.80562 3767 ft 210 kts 269°
2026-05-06 18:31 37.66073 -76.82398 3642 ft 210 kts 269°
2026-05-06 18:31 37.66183 -76.84244 3513 ft 211 kts 269°
2026-05-06 18:31 37.66292 -76.86064 3399 ft 212 kts 268°
2026-05-06 18:32 37.66403 -76.87918 3262 ft 211 kts 268°
2026-05-06 18:32 37.66515 -76.89750 3145 ft 208 kts 268°
2026-05-06 18:32 37.66621 -76.91557 3015 ft 209 kts 268°
2026-05-06 18:32 37.66729 -76.93403 2884 ft 213 kts 268°
2026-05-06 18:33 37.66836 -76.95277 2762 ft 215 kts 268°
2026-05-06 18:33 37.66948 -76.97164 2646 ft 217 kts 268°
2026-05-06 18:33 37.67062 -76.99067 2522 ft 218 kts 267°
2026-05-06 18:33 37.67174 -77.00983 2404 ft 220 kts 266°
2026-05-06 18:34 37.67286 -77.02883 2273 ft 219 kts 266°
2026-05-06 18:34 37.67398 -77.04793 2143 ft 218 kts 267°
2026-05-06 18:34 37.67510 -77.06706 2035 ft 219 kts 267°
2026-05-06 18:34 37.67620 -77.08627 1999 ft 220 kts 267°
2026-05-06 18:35 37.67731 -77.10560 2003 ft 222 kts 267°
2026-05-06 18:35 37.67846 -77.12484 2007 ft 213 kts 267°
2026-05-06 18:35 37.67959 -77.14276 2039 ft 199 kts 267°
2026-05-06 18:35 37.68057 -77.16012 2008 ft 199 kts 267°
2026-05-06 18:36 37.68152 -77.17713 2006 ft 188 kts 268°
2026-05-06 18:36 37.68247 -77.19270 2038 ft 171 kts 267°
2026-05-06 18:36 37.68331 -77.20759 2025 ft 170 kts 266°
2026-05-06 18:36 37.68411 -77.22259 2016 ft 172 kts 265°
2026-05-06 18:37 37.68453 -77.23770 2013 ft 172 kts 261°
2026-05-06 18:37 37.68354 -77.24748 2009 ft 162 kts 251°
2026-05-06 18:37 37.67845 -77.26269 2013 ft 127 kts 232°
2026-05-06 18:37 37.67285 -77.27107 2016 ft 123 kts 221°
2026-05-06 18:38 37.66642 -77.27709 2009 ft 112 kts 212°
2026-05-06 18:38 37.65940 -77.28109 2015 ft 112 kts 202°
2026-05-06 18:38 37.65184 -77.28357 2020 ft 112 kts 199°
2026-05-06 18:38 37.64425 -77.28587 2014 ft 113 kts 198°
2026-05-06 18:39 37.63656 -77.28819 2000 ft 114 kts 199°
2026-05-06 18:39 37.62881 -77.29053 2000 ft 115 kts 198°
2026-05-06 18:39 37.62099 -77.29289 1995 ft 115 kts 198°
2026-05-06 18:40 37.60550 -77.29757 1972 ft 115 kts 198°
2026-05-06 18:40 37.59770 -77.29991 1845 ft 117 kts 198°
2026-05-06 18:40 37.58975 -77.30230 1710 ft 118 kts 199°
2026-05-06 18:40 37.58176 -77.30469 1546 ft 117 kts 197°
2026-05-06 18:41 37.57389 -77.30704 1390 ft 115 kts 197°
2026-05-06 18:41 37.56611 -77.30936 1189 ft 117 kts 199°
2026-05-06 18:41 37.55819 -77.31183 1087 ft 117 kts 196°
2026-05-06 18:41 37.55018 -77.31428 920 ft 119 kts 197°
2026-05-06 18:42 37.54217 -77.31670 758 ft 119 kts 197°
2026-05-06 18:42 37.53412 -77.31912 537 ft 121 kts 195°
2026-05-06 18:42 37.52576 -77.32166 417 ft 125 kts 193°
2026-05-06 18:42 37.51751 -77.32401 223 ft 118 kts 198°
2026-05-06 18:43 37.51029 -77.32631 175 ft 76 kts 192°
2026-05-06 18:43 37.50642 -77.32740 173 ft 47 kts 193°
2026-05-06 18:43 37.50459 -77.32831 174 ft 22 kts 247°
2026-05-06 18:43 37.50489 -77.32981 174 ft 17 kts 308°
2026-05-06 18:44 37.50582 -77.33000 175 ft 14 kts 343°
2026-05-06 18:44 37.50624 -77.33067 175 ft 0 kts 285°